2023/09/25 00:00:00, 0.2,15.6
2023/09/25 00:10:00, 0.2,15.6
2023/09/25 00:20:00, 0.2,15.9
2023/09/25 00:30:00, 0.2,15.7
2023/09/25 00:40:00, 0.2,15.7
2023/09/25 00:50:00, 0.2,15.7
2023/09/25 01:00:00, 0.2,15.6
2023/09/25 01:10:00, 0.2,15.5
2023/09/25 01:20:00, 0.3,15.3
2023/09/25 01:30:00, 0.2,15.3
2023/09/25 01:40:00, 0.2,15.3
2023/09/25 01:50:00, 0.2,14.9
2023/09/25 02:00:00, 0.2,15.0
2023/09/25 02:10:00, 0.3,14.9
2023/09/25 02:20:00, 0.3,15.0
2023/09/25 02:30:00, 0.3,14.8
2023/09/25 02:40:00, 0.3,14.8
2023/09/25 02:50:00, 0.3,14.8
2023/09/25 03:00:00, 0.3,14.6
2023/09/25 03:10:00, 0.3,14.8
2023/09/25 03:20:00, 0.3,14.8
2023/09/25 03:30:00, 0.3,15.0
2023/09/25 03:40:00, 0.3,15.2
2023/09/25 03:50:00, 0.3,15.1
2023/09/25 04:00:00, 0.3,15.3
2023/09/25 04:10:00, 0.3,15.2
2023/09/25 04:20:00, 0.3,15.5
2023/09/25 04:30:00, 0.3,15.7
2023/09/25 04:40:00, 0.3,15.4
2023/09/25 04:50:00, 0.3,15.6
2023/09/25 05:00:00, 0.3,15.7
2023/09/25 05:10:00, 0.3,15.4
2023/09/25 05:20:00, 0.3,15.4
2023/09/25 05:30:00, 0.3,15.5
2023/09/25 05:40:00, 0.3,15.5
2023/09/25 05:50:00, 0.3,15.5
2023/09/25 06:00:00, 0.3,15.3
2023/09/25 06:10:00, 0.3,15.5
2023/09/25 06:20:00, 0.3,15.7
2023/09/25 06:30:00, 0.3,16.1
2023/09/25 06:40:00, 0.2,16.1
2023/09/25 06:50:00, 0.3,16.4
2023/09/25 07:00:00, 0.3,16.8
2023/09/25 07:10:00, 0.3,17.0
2023/09/25 07:20:00, 0.3,17.6
2023/09/25 07:30:00, 0.3,17.8
2023/09/25 07:40:00, 0.3,17.6
2023/09/25 07:50:00, 0.3,18.0
2023/09/25 08:00:00, 0.3,19.2
2023/09/25 08:10:00, 0.3,19.9
2023/09/25 08:20:00, 0.3,21.1
2023/09/25 08:30:00, 0.3,22.0
2023/09/25 08:40:00, 0.2,23.0
2023/09/25 08:50:00, 0.2,23.2
2023/09/25 09:00:00, 0.2,24.1
2023/09/25 09:10:00, 0.2,24.4
2023/09/25 09:20:00, 0.2,23.9
2023/09/25 09:30:00, 0.2,23.3
2023/09/25 09:40:00, 0.2,23.4
2023/09/25 09:50:00, 0.2,23.7
2023/09/25 10:00:00, 0.2,23.3
2023/09/25 10:10:00, 0.1,23.3
2023/09/25 10:20:00, 0.2,23.9
2023/09/25 10:30:00, 0.2,24.3
2023/09/25 10:40:00, 0.2,24.9
2023/09/25 10:50:00, 0.3,26.7
2023/09/25 11:00:00, 0.3,27.8
2023/09/25 11:10:00, 0.2,26.1
2023/09/25 11:20:00, 0.2,25.8
2023/09/25 11:30:00, 0.2,26.6
2023/09/25 11:40:00, 0.2,26.2
2023/09/25 11:50:00, 0.3,26.6
2023/09/25 12:00:00, 0.3,26.3
2023/09/25 12:10:00, 0.2,26.2
2023/09/25 12:20:00, 0.2,25.8
2023/09/25 12:30:00, 0.2,25.7
2023/09/25 12:40:00, 0.2,26.1
2023/09/25 12:50:00, 0.2,26.9
2023/09/25 13:00:00, 0.3,27.5
2023/09/25 13:10:00, 0.3,28.0
2023/09/25 13:20:00, 0.2,29.2
2023/09/25 13:30:00, 0.3,29.7
2023/09/25 13:40:00, 0.4,30.1
2023/09/25 13:50:00, 0.3,28.2
2023/09/25 14:00:00, 0.3,28.7
2023/09/25 14:10:00, 0.2,27.9
2023/09/25 14:20:00, 0.2,28.1
2023/09/25 14:30:00, 0.2,28.9
2023/09/25 14:40:00, 0.2,29.4
2023/09/25 14:50:00, 0.1,28.5
2023/09/25 15:00:00, 0.1,27.7
2023/09/25 15:10:00, 0.1,27.2
2023/09/25 15:20:00, 0.1,26.8
2023/09/25 15:30:00, 0.1,26.8
2023/09/25 15:40:00, 0.2,26.7
2023/09/25 15:50:00, 0.2,26.5
2023/09/25 16:00:00, 0.2,25.9
2023/09/25 16:10:00, 0.2,26.2
2023/09/25 16:20:00, 0.2,26.0
2023/09/25 16:30:00, 0.2,26.1
2023/09/25 16:40:00, 0.2,26.2
2023/09/25 16:50:00, 0.2,25.7
2023/09/25 17:00:00, 0.2,25.2
2023/09/25 17:10:00, 0.1,24.6
2023/09/25 17:20:00, 0.2,24.2
2023/09/25 17:30:00, 0.1,23.7
2023/09/25 17:40:00, 0.1,23.4
2023/09/25 17:50:00, 0.1,23.1
2023/09/25 18:00:00, 0.1,22.4
2023/09/25 18:10:00, 0.1,22.4
2023/09/25 18:20:00, 0.1,22.4
2023/09/25 18:30:00, 0.1,22.2
2023/09/25 18:40:00, 0.1,22.0
2023/09/25 18:50:00, 0.1,21.9
2023/09/25 19:00:00, 0.1,21.6
2023/09/25 19:10:00, 0.1,21.5
2023/09/25 19:20:00, 0.1,21.3
2023/09/25 19:30:00, 0.1,21.5
2023/09/25 19:40:00, 0.1,21.4
2023/09/25 19:50:00, 0.1,21.3
2023/09/25 20:00:00, 0.2,21.3
2023/09/25 20:10:00, 0.1,21.0
2023/09/25 20:20:00, 0.2,20.8
2023/09/25 20:30:00, 0.2,20.6
2023/09/25 20:40:00, 0.2,20.5
2023/09/25 20:50:00, 0.2,20.5
2023/09/25 21:00:00, 0.2,20.4
2023/09/25 21:10:00, 0.2,20.4
2023/09/25 21:20:00, 0.2,20.3
2023/09/25 21:30:00, 0.2,20.1
2023/09/25 21:40:00, 0.2,20.4
2023/09/25 21:50:00, 0.3,20.1
2023/09/25 22:00:00, 0.2,20.1
2023/09/25 22:10:00, 0.2,20.1
2023/09/25 22:20:00, 0.2,20.2
2023/09/25 22:30:00, 0.2,20.2
2023/09/25 22:40:00, 0.2,20.1
2023/09/25 22:50:00, 0.2,20.1
2023/09/25 23:00:00, 0.2,19.7
2023/09/25 23:10:00, 0.2,19.8
2023/09/25 23:20:00, 0.2,19.4
2023/09/25 23:30:00, 0.2,19.4
2023/09/25 23:40:00, 0.2,19.5
2023/09/25 23:50:00, 0.2,19.6
